• In Russia
  • List of Countries
  • For 7 days
  • Water Temperature
  • Weather Map
  • Weather Widgets
  • user-avatar
    Login

    Hourly Weather Sharan

    Today, 5 April, Sunday

    Time Temperature Precipitation Wind Pressure Humidity
    00:00 +9°C° 0.1 mm 3 mps 587 mmHg 71%
    01:00 +8°C° 0.1 mm 3 mps 586 mmHg 75%
    02:00 +8°C° 0.1 mm 3 mps 586 mmHg 78%
    03:00 +7°C° 0.2 mm 3 mps 586 mmHg 80%
    04:00 +7°C° 0.2 mm 3 mps 586 mmHg 83%
    05:00 +6°C° 0 mm 2 mps 585 mmHg 84%
    06:00 +6°C° 0 mm 2 mps 586 mmHg 82%
    07:00 +7°C° 0 mm 2 mps 586 mmHg 80%
    08:00 +7°C° 0 mm 2 mps 587 mmHg 79%
    09:00 +8°C° 0 mm 2 mps 587 mmHg 72%
    10:00 +9°C° 0 mm 2 mps 588 mmHg 65%
    11:00 +10°C° 0 mm 2 mps 588 mmHg 58%
    12:00 +12°C° 0 mm 2 mps 588 mmHg 53%
    13:00 +13°C° 0 mm 2 mps 588 mmHg 49%
    14:00 +14°C° 0 mm 2 mps 588 mmHg 44%
    15:00 +14°C° 0 mm 2 mps 588 mmHg 41%
    16:00 +15°C° 0 mm 2 mps 588 mmHg 39%
    17:00 +15°C° 0 mm 2 mps 588 mmHg 37%
    18:00 +14°C° 0 mm 2 mps 588 mmHg 40%
    19:00 +14°C° 0 mm 2 mps 589 mmHg 44%
    20:00 +13°C° 0 mm 2 mps 589 mmHg 48%
    21:00 +13°C° 0 mm 2 mps 589 mmHg 50%
    22:00 +12°C° 0 mm 2 mps 589 mmHg 52%
    23:00 +12°C° 0 mm 2 mps 589 mmHg 55%

    Tomorrow, 6 April, Monday

    Time Temperature Precipitation Wind Pressure Humidity
    00:00 +10°C° 0 mm 2 mps 588 mmHg 56%
    01:00 +10°C° 0 mm 1 mps 587 mmHg 57%
    02:00 +10°C° 0 mm 1 mps 587 mmHg 59%
    03:00 +9°C° 0 mm 1 mps 587 mmHg 60%
    04:00 +9°C° 0 mm 1 mps 586 mmHg 62%
    05:00 +9°C° 0 mm 1 mps 586 mmHg 63%
    06:00 +9°C° 0.1 mm 1 mps 587 mmHg 63%
    07:00 +9°C° 0.1 mm 1 mps 587 mmHg 62%
    08:00 +10°C° 0.1 mm 1 mps 588 mmHg 61%
    09:00 +9°C° 0.2 mm 2 mps 588 mmHg 61%
    10:00 +9°C° 0.2 mm 2 mps 588 mmHg 62%
    11:00 +10°C° 0.2 mm 2 mps 588 mmHg 62%
    12:00 +11°C° 0.6 mm 3 mps 588 mmHg 53%
    13:00 +12°C° 0.6 mm 4 mps 588 mmHg 45%
    14:00 +14°C° 0.6 mm 5 mps 588 mmHg 37%
    15:00 +14°C° 0 mm 6 mps 588 mmHg 34%
    16:00 +14°C° 0 mm 7 mps 587 mmHg 32%
    17:00 +15°C° 0 mm 8 mps 587 mmHg 30%
    18:00 +12°C° 0 mm 8 mps 587 mmHg 31%
    19:00 +11°C° 0 mm 8 mps 586 mmHg 32%
    20:00 +10°C° 0 mm 8 mps 586 mmHg 33%
    21:00 +9°C° 0 mm 8 mps 586 mmHg 39%
    22:00 +8°C° 0 mm 7 mps 586 mmHg 45%
    23:00 +6°C° 0 mm 7 mps 586 mmHg 51%

    Day after tomorrow, 7 April, Tuesday

    Time Temperature Precipitation Wind Pressure Humidity
    00:00 +5°C° 0.2 mm 6 mps 585 mmHg 59%
    01:00 +5°C° 0.2 mm 5 mps 584 mmHg 66%
    02:00 +5°C° 0.2 mm 3 mps 584 mmHg 74%
    03:00 +4°C° 0.1 mm 3 mps 584 mmHg 73%
    04:00 +5°C° 0.1 mm 2 mps 583 mmHg 71%
    05:00 +6°C° 0.1 mm 1 mps 583 mmHg 70%
    06:00 +7°C° 0 mm 1 mps 584 mmHg 67%
    07:00 +6°C° 0 mm 2 mps 584 mmHg 64%
    08:00 +6°C° 0 mm 2 mps 585 mmHg 61%
    09:00 +8°C° 0 mm 3 mps 585 mmHg 56%
    10:00 +8°C° 0 mm 4 mps 585 mmHg 51%
    11:00 +9°C° 0 mm 5 mps 586 mmHg 47%
    12:00 +10°C° 0 mm 5 mps 586 mmHg 44%
    13:00 +12°C° 0 mm 5 mps 586 mmHg 41%
    14:00 +13°C° 0 mm 5 mps 586 mmHg 38%
    15:00 +13°C° 0 mm 5 mps 586 mmHg 36%
    16:00 +14°C° 0 mm 5 mps 586 mmHg 34%
    17:00 +14°C° 0 mm 6 mps 586 mmHg 32%
    18:00 +13°C° 0 mm 4 mps 586 mmHg 36%
    19:00 +12°C° 0 mm 3 mps 586 mmHg 40%
    20:00 +12°C° 0 mm 2 mps 585 mmHg 44%
    21:00 +12°C° 0 mm 2 mps 585 mmHg 47%
    22:00 +10°C° 0 mm 2 mps 585 mmHg 50%
    23:00 +11°C° 0 mm 1 mps 585 mmHg 53%

    8 April, Wednesday

    Time Temperature Precipitation Wind Pressure Humidity
    00:00 +10°C° 0 mm 1 mps 585 mmHg 57%
    01:00 +10°C° 0 mm 1 mps 584 mmHg 60%
    02:00 +9°C° 0 mm 1 mps 584 mmHg 64%
    03:00 +9°C° 0 mm 1 mps 584 mmHg 66%
    04:00 +8°C° 0 mm 1 mps 584 mmHg 68%
    05:00 +8°C° 0 mm 1 mps 583 mmHg 70%
    06:00 +7°C° 0 mm 2 mps 584 mmHg 67%
    07:00 +8°C° 0 mm 2 mps 584 mmHg 64%
    08:00 +8°C° 0 mm 2 mps 585 mmHg 61%
    09:00 +10°C° 0 mm 2 mps 585 mmHg 55%
    10:00 +12°C° 0 mm 2 mps 586 mmHg 49%
    11:00 +13°C° 0 mm 2 mps 586 mmHg 42%
    12:00 +13°C° 0 mm 3 mps 586 mmHg 40%
    13:00 +14°C° 0 mm 4 mps 586 mmHg 37%
    14:00 +14°C° 0 mm 5 mps 586 mmHg 35%
    15:00 +15°C° 0 mm 5 mps 586 mmHg 35%
    16:00 +15°C° 0 mm 5 mps 585 mmHg 35%
    17:00 +15°C° 0 mm 5 mps 585 mmHg 35%
    18:00 +14°C° 0 mm 6 mps 585 mmHg 39%
    19:00 +12°C° 0 mm 7 mps 585 mmHg 43%
    20:00 +11°C° 0 mm 7 mps 585 mmHg 47%
    21:00 +11°C° 0 mm 7 mps 585 mmHg 49%
    22:00 +10°C° 0 mm 7 mps 584 mmHg 52%
    23:00 +9°C° 0 mm 6 mps 584 mmHg 55%

    9 April, Thursday

    Time Temperature Precipitation Wind Pressure Humidity
    00:00 +9°C° 0 mm 6 mps 584 mmHg 56%
    01:00 +9°C° 0 mm 6 mps 583 mmHg 58%
    02:00 +9°C° 0 mm 6 mps 583 mmHg 59%
    03:00 +8°C° 0 mm 6 mps 583 mmHg 62%
    04:00 +8°C° 0 mm 5 mps 582 mmHg 64%
    05:00 +7°C° 0 mm 5 mps 582 mmHg 67%
    06:00 +8°C° 0 mm 5 mps 582 mmHg 65%
    07:00 +8°C° 0 mm 5 mps 583 mmHg 63%
    08:00 +9°C° 0 mm 5 mps 583 mmHg 61%
    09:00 +10°C° 0 mm 5 mps 584 mmHg 54%
    10:00 +12°C° 0 mm 5 mps 585 mmHg 47%
    11:00 +13°C° 0 mm 5 mps 585 mmHg 40%
    12:00 +14°C° 0 mm 5 mps 586 mmHg 35%
    13:00 +15°C° 0 mm 5 mps 586 mmHg 29%
    14:00 +17°C° 0 mm 4 mps 586 mmHg 24%
    15:00 +16°C° 0 mm 5 mps 586 mmHg 22%
    16:00 +16°C° 0 mm 5 mps 586 mmHg 20%
    17:00 +16°C° 0 mm 6 mps 586 mmHg 17%
    18:00 +15°C° 0 mm 5 mps 586 mmHg 22%
    19:00 +13°C° 0 mm 4 mps 586 mmHg 26%
    20:00 +12°C° 0 mm 3 mps 586 mmHg 30%
    21:00 +11°C° 0 mm 3 mps 586 mmHg 39%
    22:00 +10°C° 0 mm 3 mps 586 mmHg 47%
    23:00 +10°C° 0 mm 3 mps 586 mmHg 56%

    10 April, Friday

    Time Temperature Precipitation Wind Pressure Humidity
    00:00 +9°C° 0 mm 2 mps 586 mmHg 60%
    01:00 +8°C° 0 mm 2 mps 586 mmHg 64%
    02:00 +8°C° 0 mm 2 mps 585 mmHg 68%
    03:00 +7°C° 0 mm 2 mps 585 mmHg 69%
    04:00 +8°C° 0 mm 1 mps 585 mmHg 70%
    05:00 +7°C° 0 mm 1 mps 585 mmHg 71%
    06:00 +8°C° 0 mm 1 mps 586 mmHg 67%
    07:00 +9°C° 0 mm 1 mps 586 mmHg 63%
    08:00 +9°C° 0 mm 1 mps 587 mmHg 58%
    09:00 +11°C° 0 mm 1 mps 587 mmHg 50%
    10:00 +12°C° 0 mm 1 mps 588 mmHg 43%
    11:00 +14°C° 0 mm 1 mps 589 mmHg 35%
    12:00 +15°C° 0 mm 2 mps 589 mmHg 32%
    13:00 +16°C° 0 mm 2 mps 589 mmHg 30%
    14:00 +17°C° 0 mm 2 mps 589 mmHg 27%
    15:00 +18°C° 0 mm 2 mps 589 mmHg 27%
    16:00 +18°C° 0 mm 2 mps 589 mmHg 27%
    17:00 +19°C° 0 mm 2 mps 589 mmHg 26%
    18:00 +18°C° 0 mm 2 mps 589 mmHg 31%
    19:00 +17°C° 0 mm 2 mps 590 mmHg 36%
    20:00 +17°C° 0 mm 2 mps 590 mmHg 42%
    21:00 +16°C° 0 mm 2 mps 590 mmHg 45%
    22:00 +14°C° 0 mm 3 mps 590 mmHg 49%
    23:00 +13°C° 0 mm 4 mps 590 mmHg 53%
    Show more